Theta_e
336 338 341 342 342 340 341 340 340 339 339 337 335 334 334 334 334 333 330 329 329 329 329 328 327 327 327 328 328 328 328 328 328 327 326 325 324 323 322 321 319 318 316 316 314 313 312 310 308 305 303 304
332 335 337 338 338 338 338 338 338 338 338 336 335 334 334 333 332 331 329 328 328 328 328 327 327 327 327 328 328 328 327 327 326 325 325 324 323 322 321 320 318 317 315 313 312 312 310 309 307 304 302 303
333 329 332 334 335 336 336 337 336 336 335 333 333 333 331 329 327 326 327 328 328 327 328 328 327 326 327 327 328 327 326 325 324 324 324 323 322 321 319 318 317 315 314 312 311 310 307 304 302 301 301 301
330 328 326 330 332 332 334 334 334 333 331 328 328 328 326 323 324 322 325 321 325 325 327 326 325 327 327 328 327 326 325 324 323 323 323 322 321 320 318 317 315 313 312 311 309 307 304 301 300 300 300 301
327 328 324 326 326 327 329 330 330 331 326 322 321 322 319 318 324 324 324 324 325 319 325 319 320 326 327 327 325 324 323 323 322 321 320 320 319 318 316 314 313 311 311 309 307 304 300 298 299 298 299 299
324 325 326 330 331 331 329 326 324 327 329 320 327 318 320 320 318 318 317 318 317 320 321 320 318 323 326 325 324 323 322 321 321 319 318 316 314 311 308 303 301 303 305 305 304 300 298 298 298 298 298 298
322 323 326 327 327 326 323 325 325 326 323 323 321 319 316 314 315 314 314 315 315 316 314 319 317 321 323 323 323 321 321 320 319 318 317 314 311 308 303 300 300 299 299 299 298 297 298 297 297 297 297 297
321 322 323 324 324 324 324 324 323 322 320 318 316 313 312 311 311 312 311 311 310 312 316 318 316 319 320 321 320 319 319 318 317 316 314 311 307 302 299 299 298 298 298 298 298 298 297 296 296 297 296 296
319 320 320 321 322 322 321 320 319 318 316 314 312 310 309 308 309 309 309 311 312 312 312 313 313 312 312 311 310 307 306 305 303 302 301 300 299 299 299 299 298 298 298 297 297 296 296 296 296 296 296 296
318 317 318 318 319 319 318 317 316 314 313 311 309 308 306 305 306 306 307 308 308 307 308 308 307 305 304 305 303 301 300 298 298 298 298 298 298 297 298 297 298 298 297 296 296 295 296 295 295 295 295 295
317 317 318 318 316 317 315 315 314 312 311 310 307 306 304 304 304 305 305 305 304 304 304 304 302 301 301 301 299 298 297 297 297 297 297 297 297 296 297 296 296 296 295 296 295 295 295 295 295 295 295 295
316 318 316 316 314 315 314 312 312 311 309 307 305 304 303 304 303 303 303 303 302 302 300 301 299 298 298 298 297 296 297 297 296 296 296 297 296 296 296 295 295 295 294 294 295 295 295 295 294 294 294 294
317 317 316 315 314 313 312 312 312 310 307 305 303 302 302 302 301 302 302 301 301 298 299 297 296 296 296 296 296 296 295 297 296 296 296 296 295 296 295 295 295 294 294 294 294 294 294 294 294 294 294 294
316 316 314 315 315 316 311 311 310 308 305 304 302 301 301 301 301 301 301 300 298 297 297 296 295 295 295 295 295 295 296 295 296 295 295 295 295 295 295 295 294 294 294 294 294 293 294 293 293 294 294 294
314 315 314 314 315 314 311 309 307 306 305 303 301 301 300 300 300 300 300 299 297 297 296 295 295 294 294 294 295 295 295 295 295 295 295 295 294 294 294 294 294 293 293 293 293 293 293 293 293 293 294 294
314 313 313 313 314 312 312 308 306 305 304 302 300 300 299 299 299 299 298 298 297 296 295 294 294 294 294 294 294 295 295 294 294 294 294 293 293 294 294 293 292 292 293 292 292 293 293 293 293 293 294 294
313 313 312 312 310 310 310 306 305 304 303 302 300 299 299 298 298 298 297 297 297 296 295 294 294 293 294 294 294 294 294 294 294 294 294 293 293 293 292 292 292 292 292 292 292 292 292 293 293 293 294 293
312 312 312 311 310 309 307 305 304 304 303 302 300 299 298 298 298 297 297 297 296 296 294 294 294 293 293 293 294 294 294 294 294 293 293 293 292 292 292 292 292 291 292 291 291 292 292 293 292 293 293 293
311 312 310 309 308 307 306 305 304 303 302 301 300 298 298 297 297 297 296 297 296 295 294 293 293 292 292 292 293 293 293 293 293 293 293 292 292 292 291 292 292 292 292 292 291 291 292 292 292 293 292 293
311 310 309 308 306 306 305 304 303 302 301 300 299 298 298 297 297 297 296 296 296 294 294 293 292 292 291 292 293 293 292 293 292 292 292 292 292 290 291 291 291 292 292 291 291 291 291 292 292 292 292 292
309 309 308 306 305 304 303 303 302 301 300 299 298 297 298 297 297 297 296 296 295 295 294 293 292 291 291 292 292 292 292 292 292 292 292 291 290 291 292 292 292 291 291 290 290 290 291 291 292 292 292 291
308 307 306 304 303 302 300 301 301 300 298 297 297 297 297 297 296 296 296 295 295 295 294 293 292 291 291 292 291 291 291 291 291 292 292 291 290 289 291 291 291 290 290 290 290 289 290 290 291 291 292 292
306 305 303 301 300 299 298 299 299 298 297 297 297 296 297 297 296 296 296 295 295 294 293 293 292 290 291 291 291 291 291 290 290 291 290 291 289 289 289 291 291 290 290 289 289 289 289 290 290 291 291 291
303 301 299 296 295 296 296 297 296 296 296 296 296 296 296 296 297 297 295 295 295 295 293 292 291 290 290 291 291 290 290 290 290 290 289 289 290 290 289 289 290 290 289 288 289 288 289 290 290 290 290 290
301 298 298 297 295 295 296 295 296 295 296 296 295 296 296 296 296 296 295 295 294 294 293 292 291 290 290 290 291 291 291 291 290 291 290 289 290 290 289 289 288 289 290 289 287 288 288 288 290 290 289 288
301 300 299 297 296 296 297 295 294 294 294 295 295 295 295 296 296 296 295 294 294 294 293 292 291 290 289 290 290 290 291 290 290 290 289 289 288 289 289 289 289 288 290 289 288 286 286 287 288 290 289 289
299 300 300 299 298 297 296 296 296 296 295 295 294 294 295 295 295 295 295 295 294 293 293 292 291 290 290 290 290 289 289 289 289 289 288 289 289 287 289 289 288 288 289 291 289 290 287 285 285 287 288 288
299 299 299 298 296 297 296 294 294 295 294 294 294 293 294 294 294 294 294 294 294 293 293 292 291 291 290 289 290 290 289 288 289 288 288 288 289 290 287 288 287 289 286 287 289 287 288 286 287 285 285 287
298 297 295 294 293 294 293 293 293 293 292 292 293 293 292 293 294 294 294 293 293 293 293 292 292 291 290 289 289 290 289 288 289 289 288 289 288 289 290 287 288 287 287 287 286 290 284 284 285 288 288 286
296 296 294 292 292 291 291 291 290 290 291 290 291 291 292 293 293 293 293 293 293 293 293 292 292 291 290 290 289 289 289 289 289 289 288 288 289 289 290 289 287 286 287 286 287 287 288 292 295 288 285 286
296 295 295 294 294 294 292 292 292 294 294 293 293 294 292 292 292 293 293 293 293 293 293 292 292 291 291 290 289 289 288 288 288 289 288 289 288 289 289 289 288 288 286 286 286 286 287 286 285 290 287 285
Wind_Speed
10 10 11 13 12 12 13 13 12 10 8 8 11 12 10 9 7 8 10 11 11 10 10 10 10 10 10 11 11 12 12 13 13 13 13 13 13 13 13 13 12 12 13 13 12 12 11 11 11 10 6 4
10 10 11 11 11 12 12 11 11 10 10 10 10 9 8 6 9 10 11 12 11 12 12 11 11 11 11 11 12 12 13 13 13 13 13 12 12 12 13 13 12 12 12 12 12 12 11 11 10 9 7 5
8 10 10 10 9 10 10 9 11 10 10 10 10 8 8 8 9 9 9 10 11 12 11 10 11 11 12 12 13 13 13 13 13 13 13 12 12 12 12 13 13 13 12 12 12 12 11 11 10 8 5 5
6 7 9 9 9 10 10 9 9 10 9 10 9 8 8 9 9 8 7 9 9 9 11 10 8 10 11 12 13 13 13 13 13 13 13 13 13 13 13 13 13 13 13 12 12 12 11 10 7 5 4 5
6 6 7 7 9 9 9 9 10 9 10 10 9 8 9 9 7 5 5 6 5 9 7 7 8 9 12 12 12 12 12 13 13 13 13 13 13 13 13 13 13 13 13 12 12 11 10 7 5 5 4 4
5 5 6 6 7 7 7 8 8 9 8 7 6 9 8 6 5 4 4 4 5 5 6 7 8 9 11 12 12 12 12 13 13 13 13 14 14 13 12 11 5 6 10 12 11 10 8 5 4 4 4 4
5 6 5 5 6 5 6 6 8 6 7 6 7 6 6 5 4 5 4 4 5 5 5 6 8 8 10 11 11 11 12 12 13 13 13 14 14 13 11 5 4 4 3 5 8 7 4 4 4 4 4 3
5 5 5 5 5 4 4 5 5 6 7 6 7 7 5 5 5 5 4 6 8 6 4 5 7 8 9 9 8 10 8 10 11 13 13 13 12 7 3 4 4 4 3 3 3 4 4 4 4 4 3 3
6 5 4 4 5 5 4 4 4 4 6 6 7 7 5 5 5 5 4 4 4 4 4 4 3 4 4 4 5 6 5 4 4 4 4 5 4 3 3 4 3 3 4 3 3 4 4 4 4 4 3 3
6 7 6 6 5 5 4 5 5 4 5 5 6 6 6 6 6 5 5 4 4 4 4 4 3 3 3 4 4 3 4 3 3 3 3 4 4 3 3 4 3 3 3 4 4 4 4 3 3 3 3 3
6 7 6 6 6 7 6 5 6 5 5 5 7 7 7 7 6 6 5 5 5 5 4 4 4 4 3 4 4 3 4 4 3 3 3 3 4 3 4 4 4 4 4 4 4 4 4 3 3 3 3 3
8 8 8 7 7 7 8 7 6 6 5 6 6 7 6 6 6 7 6 5 5 5 4 4 4 3 4 3 3 3 3 4 3 4 3 4 4 4 3 4 4 4 4 4 3 4 3 3 3 3 2 2
9 8 8 8 8 8 7 7 7 6 6 6 6 6 7 7 7 6 6 7 6 5 5 4 4 4 3 4 4 4 3 3 5 4 4 4 4 3 3 3 4 4 4 3 3 3 4 3 3 3 2 3
10 10 9 10 10 9 9 8 7 8 7 6 7 7 7 8 7 7 8 7 5 6 6 5 4 4 4 4 4 4 5 3 4 5 4 4 4 4 3 3 3 3 4 3 3 3 3 3 3 2 3 3
11 10 10 10 10 8 9 8 8 7 7 7 7 7 8 8 7 7 7 7 7 6 6 5 5 5 4 4 4 4 4 3 4 4 4 4 4 3 3 3 2 2 4 3 3 2 3 3 2 3 2 3
12 12 12 10 9 9 9 9 8 8 8 8 7 8 9 8 8 8 7 8 8 7 7 7 6 5 5 5 4 4 4 4 4 4 4 4 3 3 3 3 2 2 3 3 3 2 3 2 3 3 2 3
12 10 11 11 10 8 11 8 8 9 9 8 8 8 9 9 9 8 8 8 9 8 7 7 7 6 6 5 4 4 5 6 5 5 5 4 3 3 3 3 3 2 2 3 2 2 2 2 3 2 3 3
11 12 11 8 8 8 8 8 8 8 8 8 8 8 9 9 9 9 7 8 8 7 7 7 7 7 6 5 5 5 5 5 4 5 5 4 4 3 3 3 3 3 3 3 2 2 2 2 3 2 3 3
14 12 9 9 8 8 9 8 9 8 8 8 8 8 9 10 10 10 9 9 8 8 7 8 7 7 6 6 5 5 4 5 4 5 5 5 5 3 2 2 2 2 3 3 3 3 2 3 2 2 4 3
10 10 9 8 9 7 9 8 9 8 8 8 8 8 8 10 10 10 10 10 9 9 8 8 8 7 6 7 6 5 5 5 6 5 5 4 4 5 3 3 3 1 3 3 4 3 3 3 3 4 3 4
11 10 9 9 8 8 8 9 9 8 7 7 8 8 9 10 9 10 11 10 10 9 9 8 7 7 7 7 7 6 6 5 5 6 5 4 3 1 3 3 4 3 3 4 4 4 4 3 3 4 4 4
10 8 7 7 7 8 9 9 8 7 7 9 8 8 9 9 10 10 11 11 10 8 8 8 8 7 9 8 7 7 6 5 5 5 5 6 3 3 3 4 5 5 4 4 4 4 4 4 4 4 4 4
8 7 7 6 7 8 9 8 7 7 8 8 8 10 9 11 10 10 10 10 11 10 9 8 8 8 9 8 8 7 7 6 6 5 5 6 4 2 2 2 3 5 6 5 5 5 5 4 5 4 4 4
8 7 9 9 7 7 9 8 8 9 9 8 9 10 10 11 10 9 10 10 10 9 9 9 9 9 9 8 8 9 8 8 8 9 9 7 7 6 3 2 3 5 7 7 7 6 5 5 4 5 3 4
10 11 9 7 10 12 10 10 9 8 8 9 8 9 9 10 9 10 10 10 10 9 9 8 8 9 8 8 9 9 9 8 8 7 6 6 5 7 6 3 3 4 5 9 6 5 5 4 3 3 3 4
11 10 12 13 12 10 8 10 12 12 10 9 8 9 9 8 8 9 10 9 10 8 9 9 9 9 9 9 8 7 7 8 7 8 7 7 5 1 4 4 5 5 5 2 5 7 4 3 1 1 2 3
11 9 10 9 6 8 6 6 4 4 6 6 7 8 8 8 8 10 9 10 10 9 9 9 9 9 9 9 8 9 9 9 9 8 10 10 8 6 1 1 2 5 3 4 3 3 6 4 3 2 2 0
11 10 8 6 3 6 6 5 6 7 6 8 8 9 9 9 9 9 9 10 10 8 9 10 11 9 9 10 9 10 10 10 10 9 8 8 7 6 6 4 5 3 4 3 8 5 1 3 1 3 7 5
9 9 8 6 6 6 5 4 7 6 6 8 8 7 9 10 9 10 10 10 12 11 12 11 10 10 10 10 10 9 9 10 11 11 9 10 8 11 9 7 3 4 3 6 3 3 6 3 2 4 2 5
11 10 11 11 10 9 8 7 8 13 14 9 11 12 7 8 11 10 10 10 10 10 10 10 10 10 10 10 9 9 9 9 8 10 11 12 10 11 7 8 7 5 2 0 1 3 3 1 2 5 2 4
10 10 8 12 12 11 11 11 10 7 5 9 7 5 9 8 7 10 11 10 10 10 10 9 9 9 9 9 9 8 8 10 11 10 11 9 9 9 5 5 9 10 7 3 1 0 0 2 1 2 8 4
Wind_Direction
205 210 207 207 205 200 208 205 207 208 204 203 201 207 207 199 173 174 186 189 190 187 186 182 175 168 159 151 145 141 139 135 132 127 123 120 117 113 110 106 103 100 96 92 90 86 80 73 67 59 50 58
211 215 218 212 205 201 211 207 198 202 188 190 192 194 191 170 151 168 189 191 189 186 184 178 172 167 161 155 150 145 140 134 129 126 121 117 114 110 106 102 99 96 92 89 85 81 77 74 69 64 56 56
211 212 215 208 202 198 201 200 191 196 181 175 186 178 168 151 151 171 182 187 186 182 175 169 169 167 162 158 151 143 138 134 131 128 122 117 112 109 105 101 95 90 85 82 78 73 69 65 65 60 56 52
201 209 208 203 200 200 200 194 184 181 170 163 164 161 148 146 148 157 168 175 178 174 168 165 164 167 161 155 148 144 140 136 133 128 124 119 115 111 107 102 96 92 87 81 74 69 63 59 50 48 49 47
202 209 205 204 199 193 192 189 178 170 156 151 153 151 143 140 139 136 147 158 154 158 157 153 163 163 161 154 150 146 142 137 135 131 127 124 117 109 101 93 90 90 90 86 82 77 71 60 53 48 43 35
192 199 204 195 193 189 180 179 167 160 153 149 139 140 139 133 131 134 139 138 138 133 151 158 163 162 161 155 148 145 142 139 135 132 129 124 118 110 103 95 88 84 83 84 87 86 85 74 70 60 54 46
184 193 186 186 180 174 174 168 159 144 146 131 133 132 131 139 133 137 141 141 140 136 152 156 160 164 157 150 143 142 140 138 134 130 126 120 115 109 105 101 98 97 101 95 92 93 79 79 72 73 64 64
182 185 180 178 173 161 159 160 147 140 139 138 135 136 140 139 138 141 141 142 140 140 147 148 142 138 133 129 125 129 131 130 127 122 114 109 104 99 96 102 101 102 96 90 82 75 75 72 72 63 60 59
188 172 175 176 177 159 162 154 146 147 142 144 141 143 146 139 139 142 144 145 145 146 142 128 111 95 89 87 87 80 80 73 63 68 91 94 90 93 102 96 89 93 90 81 74 67 61 68 61 61 56 53
174 172 181 181 179 163 160 162 157 155 155 151 152 150 145 144 142 150 147 153 151 148 154 142 134 114 110 111 103 87 104 96 103 114 115 109 100 91 85 79 77 70 79 89 76 72 64 62 59 55 49 46
177 187 182 178 177 170 173 167 166 169 165 160 153 155 155 154 159 155 157 158 159 158 165 154 145 137 130 130 122 121 125 128 132 127 115 104 95 92 89 83 78 78 75 78 89 82 73 65 65 61 54 46
190 193 189 184 177 188 163 167 180 173 171 150 165 164 165 161 160 160 161 165 164 164 165 162 144 135 136 128 131 137 136 139 132 120 106 105 102 103 96 101 94 94 89 88 90 98 88 83 77 70 65 64
196 191 193 185 187 190 164 182 178 170 156 169 166 169 167 165 162 169 167 167 169 155 168 150 154 153 145 142 143 151 150 149 137 124 124 122 122 119 118 118 110 105 97 96 90 97 98 89 80 77 71 62
195 195 191 192 194 192 182 185 170 159 175 171 168 173 178 175 169 172 172 166 161 167 161 157 152 154 153 155 154 161 152 159 139 135 132 127 123 124 123 117 115 116 101 88 89 85 95 83 79 77 75 65
200 192 199 194 192 186 190 173 166 176 172 172 180 176 172 176 176 170 172 169 164 169 161 162 162 161 154 157 165 163 140 142 134 130 129 132 130 131 128 118 119 114 106 101 94 94 94 94 99 91 88 87
200 199 200 192 193 194 187 166 178 175 175 179 179 173 176 178 177 172 171 168 166 169 165 166 165 157 164 163 159 156 144 134 131 124 111 99 93 96 104 116 116 100 111 107 101 106 97 100 97 96 97 92
200 196 197 196 194 186 189 181 176 181 181 177 177 176 178 178 175 176 173 176 170 168 168 163 161 162 169 161 155 147 139 128 127 117 110 97 101 101 108 120 118 114 106 106 105 99 91 104 93 94 97 92
199 199 197 191 184 182 178 185 184 187 181 177 176 178 177 176 178 178 177 169 169 166 164 167 170 164 161 160 153 141 144 137 135 118 117 123 129 141 157 154 145 147 125 105 108 92 94 87 91 100 89 81
203 198 192 186 184 184 182 182 191 186 181 181 179 176 179 178 179 179 173 173 165 167 167 167 169 172 163 152 152 146 149 135 124 122 133 144 146 143 157 150 145 152 119 127 100 88 95 94 97 83 84 80
196 192 191 188 190 184 184 186 191 187 186 184 175 181 178 181 179 175 174 171 169 166 174 173 172 168 152 156 149 143 141 136 138 141 137 148 151 152 164 164 136 130 112 103 95 87 86 92 87 89 80 77
197 191 189 187 185 185 181 194 193 188 179 181 183 185 184 179 177 177 174 175 174 169 170 172 167 159 157 154 150 148 146 146 143 148 146 152 176 214 161 170 135 117 111 99 90 88 89 83 96 86 85 82
193 189 180 180 183 185 191 198 195 184 177 188 186 181 188 177 181 178 178 175 173 171 169 168 164 156 158 155 149 146 151 148 143 144 154 154 174 181 182 171 151 130 113 100 93 86 82 89 87 89 90 92
186 181 177 159 168 188 197 199 195 184 190 189 182 190 182 179 186 180 176 172 172 172 169 165 162 160 160 155 151 146 150 149 154 151 155 159 151 158 238 191 139 133 118 97 83 75 70 71 72 78 81 90
177 174 182 177 168 197 207 193 191 194 197 184 191 188 185 184 185 177 177 176 175 173 166 165 165 161 161 160 155 155 157 166 170 166 161 167 155 151 133 81 120 134 114 88 79 77 70 60 68 67 65 73
178 182 178 187 199 205 186 188 187 195 196 195 198 185 187 184 186 175 173 177 174 176 170 168 154 154 165 165 165 166 175 162 158 159 157 142 155 157 151 145 161 171 138 118 86 72 72 73 48 58 48 72
189 192 190 186 195 188 177 182 187 195 191 195 192 189 190 187 181 175 179 175 176 172 167 161 164 167 168 168 171 164 142 147 153 152 153 154 150 251 174 151 178 184 159 118 149 146 132 80 103 43 21 49
197 191 195 196 187 186 181 206 223 203 185 179 189 187 184 180 181 180 180 174 177 171 171 166 163 173 166 172 160 155 160 159 165 167 165 174 169 155 116 112 163 202 255 124 112 107 119 157 159 204 243 283
195 186 180 180 118 164 169 173 151 168 167 181 174 189 183 187 181 177 180 173 172 171 175 173 176 168 172 175 175 168 159 167 169 166 170 178 190 164 145 185 181 215 195 197 151 165 252 141 184 153 220 191
168 141 130 121 82 93 97 85 151 164 202 190 184 180 192 190 174 182 178 175 181 180 179 178 177 174 174 171 176 170 166 171 176 175 174 174 173 193 172 162 166 180 173 228 302 154 134 111 220 230 101 129
166 171 162 153 156 168 175 183 182 196 194 167 185 197 159 168 188 179 182 183 183 184 178 180 180 175 171 176 174 178 171 162 156 173 178 189 187 189 226 163 146 156 186 304 214 277 345 318 171 155 167 165
173 174 178 184 186 184 186 191 209 200 170 188 193 172 182 187 176 187 181 181 183 185 183 177 177 178 179 175 175 168 161 169 178 177 186 172 189 198 166 155 168 174 165 138 198 83 97 86 11 113 137 194